Location: Gallinara
(44.0333°N, 8.2333°E)
Time: 17:13:11
(UTC+00:00)

USA 267 - Pass Details

Date: 25 September 2020
Orbit: 1101 x 1106 km, 123.0° (Epoch: 22 September)

Event Time Altitude Azimuth Distance (km) Brightness Sun altitude
Rises 03:24:37 0° 49° (NE) 3,924 7.4 -20.8°
Reaches altitude 10° 03:27:08 10° 46° (NE) 2,965 6.5 -20.4°
Maximum altitude 03:33:33 61° 328° (NNW) 1,237 3.4 -19.3°
Enters shadow 03:36:57 29° 259° (W) 1,893 3.9 -18.7°
